TimeMDT,TemperatureF,Dew PointF,Humidity,Sea Level PressureIn,VisibilityMPH,Wind Direction,Wind SpeedMPH,Gust SpeedMPH,PrecipitationIn,Events,Conditions,WindDirDegrees,DateUTC
12:51 AM,33.1,21.9,64,29.94,10.0,Calm,Calm,-,N/A,,Clear,0,2013-04-01 06:51:00
1:51 AM,30.0,21.9,72,29.93,10.0,Calm,Calm,-,N/A,,Clear,0,2013-04-01 07:51:00
2:51 AM,30.0,21.0,69,29.95,10.0,Variable,4.6,-,N/A,,Clear,0,2013-04-01 08:51:00
3:51 AM,27.0,19.9,75,29.95,10.0,ENE,3.5,-,N/A,,Clear,70,2013-04-01 09:51:00
4:51 AM,28.0,19.9,72,29.94,10.0,Calm,Calm,-,N/A,,Clear,0,2013-04-01 10:51:00
5:51 AM,27.0,21.0,78,29.92,10.0,Calm,Calm,-,N/A,,Clear,0,2013-04-01 11:51:00
6:51 AM,26.1,19.9,78,29.93,10.0,Calm,Calm,-,N/A,,Clear,0,2013-04-01 12:51:00
7:51 AM,25.0,19.9,81,29.95,10.0,Calm,Calm,-,N/A,,Clear,0,2013-04-01 13:51:00
8:51 AM,28.0,21.9,78,29.98,10.0,Calm,Calm,-,N/A,,Clear,0,2013-04-01 14:51:00
9:51 AM,30.9,23.0,72,30.01,10.0,South,3.5,-,N/A,,Clear,180,2013-04-01 15:51:00
10:51 AM,36.0,25.0,64,30.01,10.0,Calm,Calm,-,N/A,,Clear,0,2013-04-01 16:51:00
11:51 AM,43.0,21.9,43,30.00,10.0,South,3.5,-,N/A,,Clear,190,2013-04-01 17:51:00
12:51 PM,45.0,25.0,46,29.99,10.0,South,6.9,-,N/A,,Clear,180,2013-04-01 18:51:00
1:51 PM,51.1,28.0,41,29.97,10.0,Variable,4.6,-,N/A,,Clear,0,2013-04-01 19:51:00
2:51 PM,54.0,30.0,40,29.96,10.0,WSW,8.1,-,N/A,,Clear,250,2013-04-01 20:51:00
3:51 PM,55.9,30.0,37,29.94,10.0,West,10.4,-,N/A,,Clear,260,2013-04-01 21:51:00
4:51 PM,57.0,26.1,30,29.93,10.0,WSW,10.4,-,N/A,,Clear,250,2013-04-01 22:51:00
5:51 PM,57.0,28.0,33,29.93,10.0,West,9.2,-,N/A,,Clear,280,2013-04-01 23:51:00
6:51 PM,55.0,28.0,35,29.95,10.0,NNW,9.2,-,N/A,,Clear,340,2013-04-02 00:51:00
7:51 PM,54.0,28.0,37,29.97,10.0,North,6.9,-,N/A,,Clear,360,2013-04-02 01:51:00
8:51 PM,48.9,28.0,44,29.99,10.0,NNW,5.8,-,N/A,,Clear,330,2013-04-02 02:51:00
9:51 PM,44.1,28.9,55,30.02,10.0,NW,3.5,-,N/A,,Clear,320,2013-04-02 03:51:00
10:51 PM,39.9,28.9,65,30.03,10.0,NNW,4.6,-,N/A,,Clear,340,2013-04-02 04:51:00
11:51 PM,37.9,28.9,70,30.01,10.0,North,4.6,-,N/A,,Clear,350,2013-04-02 05:51:00